TimeEDT,TemperatureF,Dew PointF,Humidity,Sea Level PressureIn,VisibilityMPH,Wind Direction,Wind SpeedMPH,Gust SpeedMPH,PrecipitationIn,Events,Conditions,WindDirDegrees,DateUTC
12:34 AM,37.4,28.0,69,30.08,10.0,Calm,Calm,-,N/A,,Clear,0,2012-10-09 04:34:00
12:55 AM,38.3,28.2,67,30.07,10.0,SSE,4.6,-,N/A,,Clear,160,2012-10-09 04:55:00
1:14 AM,39.2,28.2,65,30.07,10.0,SSE,3.5,-,N/A,,Clear,160,2012-10-09 05:14:00
1:35 AM,39.6,28.4,64,30.07,10.0,SSE,3.5,-,N/A,,Clear,160,2012-10-09 05:35:00
1:55 AM,39.4,28.4,65,30.07,10.0,SSE,3.5,-,N/A,,Clear,160,2012-10-09 05:55:00
2:14 AM,39.0,28.4,66,30.07,10.0,SSE,3.5,-,N/A,,Clear,160,2012-10-09 06:14:00
2:55 AM,39.9,29.1,65,30.06,10.0,SE,4.6,-,N/A,,Clear,140,2012-10-09 06:55:00
3:15 AM,39.7,28.6,64,30.05,10.0,SSE,4.6,-,N/A,,Clear,160,2012-10-09 07:15:00
3:54 AM,41.0,28.4,61,30.04,10.0,South,5.8,-,N/A,,Clear,180,2012-10-09 07:54:00
4:15 AM,43.7,28.4,55,30.04,10.0,South,8.1,-,N/A,,Scattered Clouds,190,2012-10-09 08:15:00
4:35 AM,44.6,28.0,52,30.04,10.0,SSW,6.9,-,N/A,,Scattered Clouds,200,2012-10-09 08:35:00
4:54 AM,44.1,28.2,54,30.04,10.0,SSW,8.1,-,N/A,,Clear,200,2012-10-09 08:54:00
5:15 AM,43.3,28.2,55,30.04,10.0,South,6.9,-,N/A,,Clear,190,2012-10-09 09:15:00
5:34 AM,42.8,28.4,57,30.04,10.0,South,8.1,-,N/A,,Clear,190,2012-10-09 09:34:00
5:55 AM,42.8,28.4,57,30.04,10.0,South,8.1,-,N/A,,Clear,190,2012-10-09 09:55:00
6:15 AM,43.7,28.6,55,30.03,10.0,South,9.2,-,N/A,,Clear,190,2012-10-09 10:15:00
6:34 AM,44.1,28.8,55,30.03,10.0,South,8.1,-,N/A,,Clear,190,2012-10-09 10:34:00
6:55 AM,44.6,28.8,54,30.04,10.0,SSW,9.2,-,N/A,,Clear,200,2012-10-09 10:55:00
7:15 AM,44.8,29.1,54,30.03,10.0,South,9.2,-,N/A,,Clear,190,2012-10-09 11:15:00
7:34 AM,44.8,29.3,55,30.03,10.0,South,9.2,-,N/A,,Clear,190,2012-10-09 11:34:00
7:55 AM,44.8,29.1,54,30.02,10.0,South,11.5,16.1,N/A,,Clear,190,2012-10-09 11:55:00
8:15 AM,45.0,29.3,54,30.02,10.0,South,9.2,19.6,N/A,,Clear,180,2012-10-09 12:15:00
8:34 AM,46.2,29.7,53,30.02,10.0,South,11.5,18.4,N/A,,Clear,190,2012-10-09 12:34:00
8:55 AM,46.9,30.0,52,30.02,10.0,South,12.7,18.4,N/A,,Clear,190,2012-10-09 12:55:00
9:15 AM,48.4,30.2,49,30.02,10.0,SSW,12.7,20.7,N/A,,Clear,200,2012-10-09 13:15:00
9:34 AM,49.5,30.7,49,30.02,10.0,SSW,16.1,21.9,N/A,,Clear,200,2012-10-09 13:34:00
9:55 AM,50.0,31.1,48,30.02,10.0,SSW,12.7,18.4,N/A,,Clear,200,2012-10-09 13:55:00
10:14 AM,51.3,31.6,47,30.01,10.0,South,16.1,-,N/A,,Clear,190,2012-10-09 14:14:00
10:35 AM,52.7,32.0,45,30.01,10.0,South,13.8,25.3,N/A,,Clear,190,2012-10-09 14:35:00
10:55 AM,54.3,32.0,43,30.00,10.0,SSW,17.3,21.9,N/A,,Clear,200,2012-10-09 14:55:00
11:14 AM,55.4,32.2,41,29.99,10.0,South,18.4,24.2,N/A,,Clear,190,2012-10-09 15:14:00
11:35 AM,56.7,32.4,40,29.98,10.0,South,15.0,23.0,N/A,,Clear,180,2012-10-09 15:35:00
11:55 AM,57.7,32.4,38,29.97,10.0,SSW,15.0,24.2,N/A,,Scattered Clouds,200,2012-10-09 15:55:00
12:14 PM,58.6,32.4,37,29.97,10.0,South,19.6,27.6,N/A,,Clear,190,2012-10-09 16:14:00
12:35 PM,59.7,32.4,36,29.95,10.0,South,12.7,27.6,N/A,,Clear,190,2012-10-09 16:35:00
12:55 PM,60.1,32.2,35,29.95,10.0,SSW,23.0,28.8,N/A,,Clear,200,2012-10-09 16:55:00
1:15 PM,61.2,32.4,34,29.94,10.0,SSW,16.1,26.5,N/A,,Clear,200,2012-10-09 17:15:00
1:35 PM,61.5,32.7,34,29.92,10.0,SSW,18.4,24.2,N/A,,Clear,210,2012-10-09 17:35:00
1:54 PM,62.1,32.7,33,29.92,10.0,SSW,15.0,21.9,N/A,,Clear,200,2012-10-09 17:54:00
2:15 PM,62.1,32.5,33,29.90,10.0,SSW,19.6,27.6,N/A,,Scattered Clouds,210,2012-10-09 18:15:00
2:34 PM,61.7,32.2,33,29.90,10.0,South,23.0,27.6,N/A,,Scattered Clouds,180,2012-10-09 18:34:00
2:55 PM,62.2,32.4,33,29.89,10.0,South,18.4,25.3,N/A,,Scattered Clouds,170,2012-10-09 18:55:00
3:15 PM,61.5,32.7,34,29.88,10.0,South,15.0,25.3,N/A,,Clear,190,2012-10-09 19:15:00
3:34 PM,61.7,32.7,34,29.88,10.0,South,16.1,27.6,N/A,,Clear,180,2012-10-09 19:34:00
3:55 PM,61.7,33.3,34,29.87,10.0,South,15.0,25.3,N/A,,Clear,190,2012-10-09 19:55:00
4:15 PM,61.3,32.9,34,29.86,10.0,South,17.3,28.8,N/A,,Clear,180,2012-10-09 20:15:00
4:34 PM,61.2,33.1,35,29.85,10.0,South,15.0,25.3,N/A,,Clear,190,2012-10-09 20:34:00
4:55 PM,60.8,32.7,35,29.85,10.0,SSW,18.4,25.3,N/A,,Clear,200,2012-10-09 20:55:00
5:15 PM,60.8,32.9,35,29.85,10.0,South,17.3,21.9,N/A,,Clear,180,2012-10-09 21:15:00
5:34 PM,60.3,33.1,36,29.85,10.0,SSW,16.1,20.7,N/A,,Clear,200,2012-10-09 21:34:00
5:55 PM,60.3,32.7,35,29.85,10.0,SSW,17.3,23.0,N/A,,Clear,200,2012-10-09 21:55:00
6:14 PM,59.9,33.1,36,29.85,10.0,South,11.5,-,N/A,,Clear,180,2012-10-09 22:14:00
6:35 PM,59.0,33.8,39,29.84,10.0,South,10.4,-,N/A,,Clear,180,2012-10-09 22:35:00
6:54 PM,58.1,33.8,40,29.85,10.0,South,10.4,18.4,N/A,,Clear,190,2012-10-09 22:54:00
7:15 PM,57.2,34.0,42,29.84,10.0,South,9.2,-,N/A,,Clear,180,2012-10-09 23:15:00
7:35 PM,55.8,34.3,44,29.84,10.0,South,8.1,-,N/A,,Clear,170,2012-10-09 23:35:00
7:54 PM,54.9,34.7,47,29.84,10.0,South,8.1,-,N/A,,Clear,170,2012-10-09 23:54:00
8:15 PM,55.4,34.5,45,29.84,10.0,South,9.2,-,N/A,,Clear,170,2012-10-10 00:15:00
8:35 PM,55.4,34.3,45,29.83,10.0,South,10.4,-,N/A,,Clear,170,2012-10-10 00:35:00
8:54 PM,55.0,34.3,46,29.83,10.0,South,10.4,-,N/A,,Clear,170,2012-10-10 00:54:00
9:15 PM,55.2,34.0,45,29.83,10.0,South,10.4,16.1,N/A,,Clear,180,2012-10-10 01:15:00
9:35 PM,55.4,33.8,44,29.83,10.0,South,12.7,19.6,N/A,,Clear,180,2012-10-10 01:35:00
9:54 PM,55.4,33.8,44,29.82,10.0,South,11.5,16.1,N/A,,Scattered Clouds,180,2012-10-10 01:54:00
10:15 PM,55.0,33.6,44,29.81,10.0,South,12.7,17.3,N/A,,Clear,180,2012-10-10 02:15:00
10:34 PM,54.9,33.8,45,29.80,10.0,South,11.5,17.3,N/A,,Clear,180,2012-10-10 02:34:00
10:55 PM,54.9,33.8,45,29.79,10.0,South,10.4,17.3,N/A,,Scattered Clouds,170,2012-10-10 02:55:00
11:15 PM,54.7,34.0,46,29.78,10.0,South,11.5,18.4,N/A,,Scattered Clouds,180,2012-10-10 03:15:00
11:34 PM,54.9,34.0,45,29.78,10.0,South,15.0,20.7,N/A,,Clear,180,2012-10-10 03:34:00
11:55 PM,54.9,34.3,46,29.77,10.0,South,12.7,18.4,N/A,,Scattered Clouds,190,2012-10-10 03:55:00